Terminal Aerodrome Forecast
Issued by NWS

Home | Current Version | Previous Version | Text Only | Print | Product List | Glossary On
Versions: 1 2 3 4 5 6 7 8 9 10 11 12 13
362
FTUS45 KVEF 012320
TAFBIH
TAF
KBIH 012320Z 0200/0224 17007KT P6SM FEW080 BKN100
     FM020500 32006KT P6SM FEW100
     FM021500 VRB05KT P6SM FEW250
     FM021900 17007KT P6SM SCT250=

USA.gov is the U.S. government's official web portal to all federal, state and local government web resources and services.